KLM737 LFPG-EDFH

Flight info

Callsign KLM737
Flight time 0h 54m
Altitude 15000
Route DIKOL J10 SUIPE M163 MMD Z110 BITBU Z555 ROPUV ROPUV4A
Aircraft B738/M-SDE2E3FGHIRWXY/LB1

Departure

Time 2026-05-06 11:51
Airport Charles de Gaulle International Airport (LFPG)

Arrival

Time 2026-05-06 12:46
Airport Frankfurt-Hahn Airport (EDFH)
Time Latitude Longitude Altitude Speed Heading
2026-05-06 11:22 49.01672 2.54435 353 ft 0 kts 216°
2026-05-06 11:41 49.01687 2.54453 360 ft 4 kts 216°
2026-05-06 11:42 49.01709 2.54477 360 ft 4 kts 216°
2026-05-06 11:42 49.01727 2.54499 361 ft 4 kts 235°
2026-05-06 11:42 49.01732 2.54531 363 ft 4 kts 297°
2026-05-06 11:42 49.01722 2.54555 357 ft 1 kts 307°
2026-05-06 11:43 49.01720 2.54559 357 ft 0 kts 307°
2026-05-06 11:44 49.01721 2.54557 357 ft 1 kts 307°
2026-05-06 11:45 49.01740 2.54518 363 ft 7 kts 306°
2026-05-06 11:45 49.01766 2.54455 357 ft 7 kts 298°
2026-05-06 11:45 49.01787 2.54386 358 ft 8 kts 292°
2026-05-06 11:45 49.01821 2.54341 353 ft 8 kts 30°
2026-05-06 11:46 49.01830 2.54441 358 ft 12 kts 88°
2026-05-06 11:46 49.01838 2.54605 353 ft 19 kts 85°
2026-05-06 11:46 49.01851 2.54829 353 ft 23 kts 84°
2026-05-06 11:46 49.01861 2.55065 360 ft 22 kts 85°
2026-05-06 11:47 49.01880 2.55294 355 ft 21 kts 84°
2026-05-06 11:47 49.01886 2.55517 353 ft 21 kts 88°
2026-05-06 11:47 49.01895 2.55731 359 ft 20 kts 86°
2026-05-06 11:47 49.01901 2.55941 357 ft 20 kts 87°
2026-05-06 11:48 49.01922 2.56142 353 ft 19 kts 88°
2026-05-06 11:48 49.01928 2.56339 357 ft 18 kts 84°
2026-05-06 11:48 49.01939 2.56529 353 ft 18 kts 86°
2026-05-06 11:48 49.01951 2.56712 353 ft 17 kts 85°
2026-05-06 11:49 49.01960 2.56889 357 ft 16 kts 82°
2026-05-06 11:49 49.01994 2.57048 359 ft 16 kts 40°
2026-05-06 11:49 49.02098 2.57081 353 ft 15 kts 359°
2026-05-06 11:49 49.02201 2.57069 356 ft 15 kts 356°
2026-05-06 11:50 49.02308 2.57043 360 ft 18 kts 339°
2026-05-06 11:50 49.02362 2.56932 357 ft 0 kts 272°
2026-05-06 11:50 49.02363 2.56923 358 ft 1 kts 272°
2026-05-06 11:50 49.02353 2.56673 357 ft 65 kts 266°
2026-05-06 11:51 49.02300 2.55541 353 ft 147 kts 267°
2026-05-06 11:51 49.02160 2.53677 509 ft 203 kts 266°
2026-05-06 11:51 49.01971 2.51404 1082 ft 226 kts 265°
2026-05-06 11:51 49.01800 2.48919 1849 ft 244 kts 268°
2026-05-06 11:52 49.01667 2.46289 2838 ft 252 kts 268°
2026-05-06 11:52 49.01645 2.43586 3678 ft 256 kts 285°
2026-05-06 11:52 49.02416 2.41209 4598 ft 252 kts 313°
2026-05-06 11:52 49.03698 2.39481 5584 ft 249 kts 328°
2026-05-06 11:53 49.05186 2.38089 6464 ft 253 kts 330°
2026-05-06 11:53 49.06724 2.36672 7197 ft 263 kts 329°
2026-05-06 11:53 49.08284 2.35216 8164 ft 262 kts 329°
2026-05-06 11:53 49.09883 2.33757 8883 ft 274 kts 334°
2026-05-06 11:54 49.11749 2.33133 9657 ft 284 kts
2026-05-06 11:54 49.13673 2.33931 10373 ft 294 kts 28°
2026-05-06 11:54 49.15257 2.36025 10928 ft 311 kts 53°
2026-05-06 11:54 49.16152 2.39076 11612 ft 323 kts 78°
2026-05-06 11:55 49.16183 2.42533 12351 ft 331 kts 101°
2026-05-06 11:55 49.15470 2.45851 13167 ft 334 kts 113°
2026-05-06 11:55 49.14498 2.49093 14019 ft 337 kts 115°
2026-05-06 11:55 49.13496 2.52316 14704 ft 334 kts 115°
2026-05-06 11:56 49.12549 2.55481 14973 ft 325 kts 114°
2026-05-06 11:56 49.11630 2.58696 15002 ft 334 kts 113°
2026-05-06 11:56 49.10715 2.61973 14994 ft 336 kts 113°
2026-05-06 11:56 49.09812 2.65232 14993 ft 332 kts 112°
2026-05-06 11:57 49.09208 2.68606 14988 ft 331 kts 94°
2026-05-06 11:57 49.09163 2.72121 15007 ft 335 kts 90°
2026-05-06 11:57 49.09172 2.75703 15003 ft 339 kts 89°
2026-05-06 11:57 49.09186 2.79296 15001 ft 337 kts 89°
2026-05-06 11:58 49.09193 2.82864 14979 ft 334 kts 90°
2026-05-06 11:58 49.09190 2.86398 14994 ft 332 kts 90°
2026-05-06 11:58 49.09180 2.89936 14998 ft 335 kts 90°
2026-05-06 11:58 49.09165 2.93486 14989 ft 334 kts 90°
2026-05-06 11:59 49.09145 2.96994 14986 ft 335 kts 90°
2026-05-06 11:59 49.09123 3.00547 14987 ft 335 kts 90°
2026-05-06 11:59 49.09099 3.04102 14987 ft 334 kts 90°
2026-05-06 11:59 49.09073 3.07650 14983 ft 334 kts 90°
2026-05-06 12:00 49.09046 3.11197 14988 ft 335 kts 90°
2026-05-06 12:00 49.09018 3.14755 14994 ft 335 kts 90°
2026-05-06 12:00 49.08988 3.18330 14987 ft 337 kts 90°
2026-05-06 12:00 49.08957 3.21923 14985 ft 339 kts 90°
2026-05-06 12:01 49.08925 3.25535 14993 ft 339 kts 90°
2026-05-06 12:01 49.08892 3.29109 14981 ft 336 kts 90°
2026-05-06 12:01 49.08858 3.32673 14975 ft 335 kts 90°
2026-05-06 12:01 49.08822 3.36238 14980 ft 336 kts 90°
2026-05-06 12:02 49.08785 3.39766 14982 ft 338 kts 90°
2026-05-06 12:02 49.08747 3.43357 14962 ft 339 kts 90°
2026-05-06 12:02 49.08709 3.46943 14969 ft 337 kts 90°
2026-05-06 12:02 49.08671 3.50517 14976 ft 337 kts 90°
2026-05-06 12:03 49.08631 3.54087 14954 ft 336 kts 90°
2026-05-06 12:03 49.08741 3.57626 14969 ft 333 kts 82°
2026-05-06 12:03 49.09094 3.61109 14974 ft 332 kts 79°
2026-05-06 12:03 49.09508 3.64572 14965 ft 332 kts 78°
2026-05-06 12:04 49.09918 3.67999 14975 ft 331 kts 79°
2026-05-06 12:04 49.10316 3.71462 14974 ft 332 kts 79°
2026-05-06 12:04 49.10702 3.74952 14986 ft 334 kts 79°
2026-05-06 12:04 49.11080 3.78471 14976 ft 336 kts 79°
2026-05-06 12:05 49.11451 3.81995 14982 ft 337 kts 79°
2026-05-06 12:05 49.11820 3.85537 14972 ft 337 kts 80°
2026-05-06 12:05 49.12183 3.89050 14974 ft 335 kts 80°
2026-05-06 12:05 49.12546 3.92582 14973 ft 335 kts 80°
2026-05-06 12:06 49.12903 3.96052 14986 ft 334 kts 80°
2026-05-06 12:06 49.13262 3.99547 14993 ft 334 kts 80°
2026-05-06 12:06 49.13632 4.03044 14974 ft 333 kts 76°
2026-05-06 12:06 49.14502 4.06290 14976 ft 329 kts 53°
2026-05-06 12:07 49.15909 4.09047 14980 ft 327 kts 48°
2026-05-06 12:07 49.17373 4.11717 14978 ft 327 kts 49°
2026-05-06 12:07 49.18817 4.14347 14977 ft 327 kts 49°
2026-05-06 12:07 49.20268 4.17025 14977 ft 327 kts 49°
2026-05-06 12:08 49.21714 4.19727 14982 ft 328 kts 49°
2026-05-06 12:08 49.23159 4.22441 14961 ft 329 kts 50°
2026-05-06 12:08 49.24560 4.25240 14954 ft 335 kts 56°
2026-05-06 12:08 49.25615 4.28436 14965 ft 337 kts 69°
2026-05-06 12:09 49.26287 4.31881 14969 ft 336 kts 75°
2026-05-06 12:09 49.26856 4.35362 14967 ft 335 kts 75°
2026-05-06 12:09 49.27396 4.38787 14968 ft 335 kts 76°
2026-05-06 12:09 49.27942 4.42261 14962 ft 336 kts 76°
2026-05-06 12:10 49.28495 4.45747 14955 ft 337 kts 76°
2026-05-06 12:10 49.29051 4.49228 14957 ft 335 kts 76°
2026-05-06 12:10 49.29608 4.52697 14949 ft 335 kts 76°
2026-05-06 12:10 49.30165 4.56155 14958 ft 334 kts 75°
2026-05-06 12:11 49.30721 4.59608 14960 ft 335 kts 75°
2026-05-06 12:11 49.31285 4.63105 14955 ft 339 kts 76°
2026-05-06 12:11 49.31844 4.66578 14946 ft 339 kts 75°
2026-05-06 12:11 49.32404 4.70066 14943 ft 336 kts 76°
2026-05-06 12:12 49.32962 4.73548 14950 ft 335 kts 75°
2026-05-06 12:12 49.33519 4.77033 14956 ft 336 kts 76°
2026-05-06 12:12 49.34077 4.80527 14942 ft 338 kts 75°
2026-05-06 12:12 49.34634 4.84027 14948 ft 337 kts 76°
2026-05-06 12:13 49.35188 4.87514 14944 ft 337 kts 76°
2026-05-06 12:13 49.35743 4.91011 14959 ft 339 kts 76°
2026-05-06 12:13 49.36299 4.94528 14937 ft 339 kts 76°
2026-05-06 12:13 49.36852 4.98035 14934 ft 337 kts 77°
2026-05-06 12:14 49.37401 5.01525 14930 ft 336 kts 77°
2026-05-06 12:14 49.37947 5.04998 14937 ft 334 kts 76°
2026-05-06 12:14 49.38493 5.08471 14930 ft 334 kts 77°
2026-05-06 12:14 49.39030 5.11881 14937 ft 334 kts 76°
2026-05-06 12:15 49.39677 5.15356 14936 ft 334 kts 72°
2026-05-06 12:15 49.40405 5.18685 14923 ft 334 kts 71°
2026-05-06 12:15 49.41167 5.22055 14945 ft 335 kts 71°
2026-05-06 12:15 49.41932 5.25452 14952 ft 337 kts 71°
2026-05-06 12:16 49.42694 5.28880 14916 ft 340 kts 71°
2026-05-06 12:16 49.43449 5.32317 14931 ft 338 kts 71°
2026-05-06 12:16 49.44194 5.35734 14923 ft 337 kts 72°
2026-05-06 12:16 49.44933 5.39146 14925 ft 336 kts 71°
2026-05-06 12:17 49.45669 5.42557 14920 ft 335 kts 72°
2026-05-06 12:17 49.46399 5.45949 14918 ft 334 kts 72°
2026-05-06 12:17 49.47126 5.49329 14926 ft 333 kts 72°
2026-05-06 12:17 49.47856 5.52725 14921 ft 333 kts 72°
2026-05-06 12:18 49.48576 5.56074 14921 ft 333 kts 72°
2026-05-06 12:18 49.49310 5.59459 14921 ft 333 kts 71°
2026-05-06 12:18 49.50058 5.62843 14915 ft 334 kts 71°
2026-05-06 12:18 49.50806 5.66228 14919 ft 334 kts 71°
2026-05-06 12:19 49.51552 5.69618 14919 ft 334 kts 71°
2026-05-06 12:19 49.52297 5.73013 14911 ft 335 kts 71°
2026-05-06 12:19 49.53033 5.76372 14911 ft 335 kts 71°
2026-05-06 12:19 49.53779 5.79784 14906 ft 335 kts 71°
2026-05-06 12:20 49.54512 5.83181 14908 ft 335 kts 72°
2026-05-06 12:20 49.55227 5.86613 14906 ft 336 kts 72°
2026-05-06 12:20 49.55932 5.90052 14898 ft 336 kts 73°
2026-05-06 12:20 49.56628 5.93494 14898 ft 335 kts 73°
2026-05-06 12:21 49.57326 5.96923 14911 ft 335 kts 73°
2026-05-06 12:21 49.58028 6.00358 14896 ft 336 kts 73°
2026-05-06 12:21 49.58722 6.03744 14895 ft 336 kts 73°
2026-05-06 12:21 49.59424 6.07174 14909 ft 336 kts 73°
2026-05-06 12:22 49.60128 6.10620 14899 ft 337 kts 73°
2026-05-06 12:22 49.60832 6.14071 14895 ft 338 kts 73°
2026-05-06 12:22 49.61538 6.17535 14906 ft 338 kts 73°
2026-05-06 12:22 49.62242 6.20998 14889 ft 338 kts 73°
2026-05-06 12:23 49.62947 6.24443 14886 ft 336 kts 71°
2026-05-06 12:23 49.64053 6.27581 14895 ft 334 kts 50°
2026-05-06 12:23 49.65767 6.29939 14891 ft 327 kts 30°
2026-05-06 12:23 49.67749 6.31591 14721 ft 325 kts 26°
2026-05-06 12:24 49.69762 6.33148 14519 ft 317 kts 25°
2026-05-06 12:24 49.71690 6.34634 14218 ft 310 kts 25°
2026-05-06 12:24 49.73601 6.36123 13957 ft 307 kts 25°
2026-05-06 12:24 49.75500 6.37621 13660 ft 305 kts 26°
2026-05-06 12:25 49.77382 6.39119 13340 ft 303 kts 26°
2026-05-06 12:25 49.79253 6.40615 13023 ft 302 kts 26°
2026-05-06 12:25 49.81115 6.42107 12724 ft 300 kts 26°
2026-05-06 12:25 49.82960 6.43600 12407 ft 298 kts 26°
2026-05-06 12:26 49.84793 6.45099 12106 ft 297 kts 26°
2026-05-06 12:26 49.86612 6.46592 11813 ft 295 kts 26°
2026-05-06 12:26 49.88399 6.48059 11523 ft 294 kts 26°
2026-05-06 12:26 49.90210 6.49546 11225 ft 293 kts 26°
2026-05-06 12:27 49.92015 6.51028 10930 ft 292 kts 26°
2026-05-06 12:27 49.93807 6.52500 10632 ft 291 kts 26°
2026-05-06 12:27 49.95597 6.53972 10341 ft 291 kts 27°
2026-05-06 12:27 49.97387 6.55445 10032 ft 290 kts 27°
2026-05-06 12:28 49.99125 6.56997 9856 ft 287 kts 33°
2026-05-06 12:28 50.00750 6.58872 9829 ft 292 kts 37°
2026-05-06 12:28 50.02333 6.60817 9787 ft 285 kts 38°
2026-05-06 12:28 50.03834 6.62670 9762 ft 273 kts 37°
2026-05-06 12:29 50.05292 6.64455 9761 ft 260 kts 37°
2026-05-06 12:29 50.06688 6.66151 9772 ft 249 kts 37°
2026-05-06 12:29 50.08043 6.67786 9776 ft 245 kts 37°
2026-05-06 12:29 50.09411 6.69432 9799 ft 252 kts 37°
2026-05-06 12:30 50.10821 6.71125 9805 ft 257 kts 37°
2026-05-06 12:30 50.12218 6.72802 9787 ft 257 kts 37°
2026-05-06 12:30 50.13625 6.74491 9795 ft 255 kts 37°
2026-05-06 12:30 50.15032 6.76179 9787 ft 254 kts 37°
2026-05-06 12:31 50.16434 6.77862 9797 ft 255 kts 37°
2026-05-06 12:31 50.17835 6.79545 9806 ft 255 kts 37°
2026-05-06 12:31 50.19252 6.81249 9799 ft 257 kts 37°
2026-05-06 12:31 50.20604 6.83140 9502 ft 269 kts 55°
2026-05-06 12:32 50.21234 6.85926 8942 ft 279 kts 91°
2026-05-06 12:32 50.20772 6.88810 8605 ft 275 kts 120°
2026-05-06 12:32 50.19832 6.91369 8282 ft 276 kts 123°
2026-05-06 12:32 50.18836 6.93936 8005 ft 276 kts 124°
2026-05-06 12:33 50.17844 6.96485 7761 ft 274 kts 124°
2026-05-06 12:33 50.16860 6.99034 7502 ft 273 kts 124°
2026-05-06 12:33 50.16213 7.00720 7348 ft 271 kts 124°
2026-05-06 12:33 50.15254 7.03232 7091 ft 269 kts 124°
2026-05-06 12:34 50.14297 7.05744 6863 ft 266 kts 124°
2026-05-06 12:34 50.13073 7.08971 6608 ft 260 kts 124°
2026-05-06 12:34 50.12443 7.10627 6324 ft 264 kts 124°
2026-05-06 12:34 50.11503 7.13100 6010 ft 265 kts 124°
2026-05-06 12:35 50.10566 7.15558 5736 ft 264 kts 124°
2026-05-06 12:35 50.09643 7.17983 5512 ft 263 kts 124°
2026-05-06 12:35 50.08852 7.20546 5409 ft 258 kts 104°
2026-05-06 12:35 50.08925 7.23247 5383 ft 253 kts 72°
2026-05-06 12:36 50.09786 7.25570 5402 ft 245 kts 47°
2026-05-06 12:36 50.11122 7.27212 5407 ft 246 kts 32°
2026-05-06 12:36 50.12597 7.28653 5412 ft 252 kts 31°
2026-05-06 12:36 50.14097 7.30114 5409 ft 256 kts 32°
2026-05-06 12:37 50.15604 7.31587 5413 ft 255 kts 31°
2026-05-06 12:37 50.17104 7.33063 5399 ft 254 kts 32°
2026-05-06 12:37 50.18576 7.34520 5387 ft 252 kts 31°
2026-05-06 12:37 50.20056 7.35997 5357 ft 254 kts 32°
2026-05-06 12:38 50.21545 7.37475 5370 ft 255 kts 32°
2026-05-06 12:38 50.23050 7.38969 5302 ft 258 kts 31°
2026-05-06 12:38 50.24406 7.40782 5211 ft 259 kts 58°
2026-05-06 12:38 50.24975 7.43378 5191 ft 252 kts 90°
2026-05-06 12:39 50.24685 7.46019 5095 ft 247 kts 116°
2026-05-06 12:39 50.23875 7.48352 5051 ft 242 kts 126°
2026-05-06 12:39 50.22839 7.50385 4989 ft 235 kts 148°
2026-05-06 12:39 50.21382 7.51101 4980 ft 213 kts 188°
2026-05-06 12:40 50.20064 7.50286 5016 ft 203 kts 210°
2026-05-06 12:40 50.18774 7.49322 4996 ft 208 kts 206°
2026-05-06 12:40 50.17464 7.48340 4986 ft 211 kts 208°
2026-05-06 12:40 50.16154 7.47261 4987 ft 214 kts 210°
2026-05-06 12:41 50.14879 7.46122 5006 ft 214 kts 212°
2026-05-06 12:41 50.13598 7.44912 5014 ft 215 kts 213°
2026-05-06 12:41 50.12331 7.43690 5007 ft 214 kts 214°
2026-05-06 12:41 50.11090 7.42397 5018 ft 213 kts 215°
2026-05-06 12:42 50.09821 7.41133 4877 ft 218 kts 212°
2026-05-06 12:42 50.08526 7.39885 4613 ft 217 kts 213°
2026-05-06 12:42 50.07264 7.38644 4316 ft 212 kts 213°
2026-05-06 12:42 50.06029 7.37422 4041 ft 207 kts 214°
2026-05-06 12:43 50.04847 7.36252 3757 ft 200 kts 214°
2026-05-06 12:43 50.03694 7.35118 3517 ft 187 kts 214°
2026-05-06 12:43 50.02653 7.34060 3252 ft 174 kts 217°
2026-05-06 12:43 50.01658 7.33088 3049 ft 164 kts 213°
2026-05-06 12:44 50.00720 7.32201 2808 ft 152 kts 212°
2026-05-06 12:44 49.99862 7.31364 2618 ft 140 kts 216°
2026-05-06 12:44 49.99044 7.30509 2436 ft 148 kts 219°
2026-05-06 12:44 49.98163 7.29638 2193 ft 153 kts 214°
2026-05-06 12:45 49.97269 7.28763 1990 ft 151 kts 214°
2026-05-06 12:45 49.96401 7.27906 1778 ft 148 kts 216°
2026-05-06 12:45 49.94975 7.26496 1648 ft 64 kts 212°
2026-05-06 12:46 49.94660 7.26181 1651 ft 19 kts 212°
2026-05-06 12:46 49.94546 7.26203 1658 ft 20 kts 126°
2026-05-06 12:46 49.94466 7.26392 1653 ft 21 kts 124°
2026-05-06 12:46 49.94356 7.26435 1662 ft 20 kts 210°
2026-05-06 12:47 49.94309 7.26447 1660 ft 0 kts 122°